TimeEST,TemperatureF,Dew PointF,Humidity,Sea Level PressureIn,VisibilityMPH,Wind Direction,Wind SpeedMPH,Gust SpeedMPH,PrecipitationIn,Events,Conditions,WindDirDegrees,DateUTC
12:54 AM,-0.0,-5.1,79,30.58,9.0,Calm,Calm,-,N/A,,Clear,0,2014-01-10 05:54:00
1:54 AM,-0.9,-4.0,87,30.58,6.0,Calm,Calm,-,N/A,,Clear,0,2014-01-10 06:54:00
2:54 AM,-0.0,-4.0,83,30.57,10.0,Calm,Calm,-,N/A,,Clear,0,2014-01-10 07:54:00
3:54 AM,1.0,-2.9,83,30.54,9.0,Calm,Calm,-,N/A,,Scattered Clouds,0,2014-01-10 08:54:00
4:54 AM,3.0,-0.0,87,30.52,9.0,Calm,Calm,-,N/A,,Overcast,0,2014-01-10 09:54:00
5:54 AM,5.0,1.0,84,30.51,10.0,Calm,Calm,-,N/A,,Overcast,0,2014-01-10 10:54:00
6:54 AM,7.0,3.0,84,30.51,9.0,Calm,Calm,-,N/A,,Overcast,0,2014-01-10 11:54:00
7:47 AM,8.1,5.0,87,30.45,2.5,Calm,Calm,-,0.00,Snow,Light Snow,0,2014-01-10 12:47:00
7:54 AM,8.1,5.0,87,30.50,2.5,Calm,Calm,-,0.00,Snow,Light Snow,0,2014-01-10 12:54:00
8:03 AM,8.1,5.0,87,30.45,3.0,Calm,Calm,-,0.00,Snow,Light Snow,0,2014-01-10 13:03:00
8:19 AM,8.1,5.0,87,30.45,2.0,Calm,Calm,-,0.00,Snow,Light Snow,0,2014-01-10 13:19:00
8:33 AM,9.0,6.1,88,30.45,3.0,Calm,Calm,-,0.00,Snow,Light Snow,0,2014-01-10 13:33:00
8:54 AM,9.0,6.1,88,30.49,4.0,Calm,Calm,-,0.00,Snow,Light Snow,0,2014-01-10 13:54:00
9:54 AM,10.9,8.1,88,30.49,9.0,Calm,Calm,-,0.00,,Overcast,0,2014-01-10 14:54:00
10:54 AM,15.1,12.0,88,30.48,9.0,Calm,Calm,-,N/A,,Overcast,0,2014-01-10 15:54:00
11:54 AM,18.0,14.0,84,30.43,10.0,Calm,Calm,-,N/A,,Overcast,0,2014-01-10 16:54:00
12:18 PM,19.9,15.1,81,30.37,2.5,Calm,Calm,-,0.00,Snow,Light Snow,0,2014-01-10 17:18:00
12:26 PM,19.9,16.0,85,30.37,1.5,Calm,Calm,-,0.00,Snow,Light Snow,0,2014-01-10 17:26:00
12:30 PM,19.9,16.0,85,30.37,3.0,Calm,Calm,-,0.00,Snow,Light Snow,0,2014-01-10 17:30:00
12:39 PM,19.9,16.0,85,30.35,9.0,Calm,Calm,-,0.00,,Scattered Clouds,0,2014-01-10 17:39:00
12:54 PM,23.0,17.1,78,30.39,10.0,Calm,Calm,-,0.00,,Mostly Cloudy,0,2014-01-10 17:54:00
1:54 PM,26.1,19.0,75,30.37,10.0,Calm,Calm,-,N/A,,Overcast,0,2014-01-10 18:54:00
2:54 PM,27.0,19.0,72,30.37,10.0,Calm,Calm,-,N/A,,Overcast,0,2014-01-10 19:54:00
3:54 PM,27.0,21.0,78,30.36,10.0,Calm,Calm,-,N/A,,Overcast,0,2014-01-10 20:54:00
4:25 PM,28.0,21.0,75,30.32,10.0,Calm,Calm,-,N/A,,Overcast,0,2014-01-10 21:25:00
4:51 PM,26.6,21.2,80,30.31,10.0,Calm,Calm,-,N/A,,Overcast,0,2014-01-10 21:51:00
4:54 PM,27.0,21.9,81,30.35,10.0,Calm,Calm,-,N/A,,Overcast,0,2014-01-10 21:54:00
5:54 PM,26.1,21.9,84,30.35,10.0,Calm,Calm,-,N/A,,Overcast,0,2014-01-10 22:54:00
6:54 PM,26.1,21.0,81,30.34,10.0,Calm,Calm,-,N/A,,Overcast,0,2014-01-10 23:54:00
7:54 PM,26.1,21.9,84,30.34,9.0,Calm,Calm,-,N/A,,Overcast,0,2014-01-11 00:54:00
8:54 PM,25.0,21.9,88,30.33,8.0,Calm,Calm,-,N/A,,Overcast,0,2014-01-11 01:54:00
9:54 PM,25.0,21.9,88,30.33,7.0,Calm,Calm,-,N/A,,Overcast,0,2014-01-11 02:54:00
10:33 PM,25.0,21.9,88,30.28,8.0,Calm,Calm,-,N/A,,Overcast,0,2014-01-11 03:33:00
10:54 PM,25.0,21.9,88,30.30,8.0,Calm,Calm,-,N/A,,Overcast,0,2014-01-11 03:54:00
11:02 PM,25.0,21.9,88,30.26,7.0,Calm,Calm,-,N/A,,Overcast,0,2014-01-11 04:02:00
11:54 PM,25.0,21.9,88,30.28,6.0,Calm,Calm,-,N/A,,Overcast,0,2014-01-11 04:54:00